When you browse on this site, cookies collect data to enhance your experience and personalize the content and advertising you see.
Visit our Privacy Policy to learn more. By continuing to use the site, you agree to this use of cookies and data.
  • In Romania
  • List of Countries
  • For 7 days
  • Water Temperature
  • Satellite Maps
  • Weather Map
  • Weather Widgets
  • user-avatar
    Login

    Hourly Weather Bergen

    Today, 21 July, Sunday

    Time Temperature Precipitation Wind Pressure Humidity
    00:00 +14°C° 0.7 mm 3 mps 749 mmHg 96%
    01:00 +14°C° 0.9 mm 3 mps 749 mmHg 95%
    02:00 +14°C° 0.9 mm 3 mps 749 mmHg 94%
    03:00 +14°C° 0.9 mm 3 mps 749 mmHg 94%
    04:00 +15°C° 0.9 mm 2 mps 749 mmHg 94%
    05:00 +16°C° 0.9 mm 2 mps 749 mmHg 95%
    06:00 +16°C° 0.9 mm 2 mps 749 mmHg 96%
    07:00 +16°C° 0.9 mm 2 mps 749 mmHg 96%
    08:00 +16°C° 0.9 mm 1 mps 749 mmHg 96%
    09:00 +16°C° 0.9 mm 1 mps 749 mmHg 96%
    10:00 +16°C° 2.2 mm 2 mps 750 mmHg 97%
    11:00 +16°C° 2.2 mm 3 mps 750 mmHg 97%
    12:00 +14°C° 2.2 mm 4 mps 750 mmHg 98%
    13:00 +14°C° 0.3 mm 3 mps 751 mmHg 97%
    14:00 +14°C° 0.3 mm 3 mps 751 mmHg 96%
    15:00 +15°C° 0.3 mm 2 mps 752 mmHg 95%
    16:00 +15°C° 0 mm 2 mps 752 mmHg 93%
    17:00 +15°C° 0 mm 1 mps 752 mmHg 91%
    18:00 +15°C° 0 mm 1 mps 752 mmHg 88%
    19:00 +14°C° 0 mm 1 mps 753 mmHg 90%
    20:00 +13°C° 0 mm 1 mps 753 mmHg 92%
    21:00 +12°C° 0 mm 2 mps 754 mmHg 93%
    22:00 +12°C° 0 mm 2 mps 754 mmHg 93%
    23:00 +12°C° 0 mm 2 mps 754 mmHg 94%

    Tomorrow, 22 July, Monday

    Time Temperature Precipitation Wind Pressure Humidity
    00:00 +12°C° 0 mm 2 mps 754 mmHg 94%
    01:00 +12°C° 0 mm 2 mps 754 mmHg 93%
    02:00 +10°C° 0 mm 3 mps 754 mmHg 92%
    03:00 +10°C° 0 mm 3 mps 754 mmHg 91%
    04:00 +11°C° 0 mm 3 mps 753 mmHg 87%
    05:00 +12°C° 0 mm 3 mps 753 mmHg 84%
    06:00 +14°C° 0 mm 3 mps 752 mmHg 81%
    07:00 +16°C° 0 mm 3 mps 752 mmHg 73%
    08:00 +17°C° 0 mm 4 mps 751 mmHg 65%
    09:00 +19°C° 0 mm 4 mps 751 mmHg 58%
    10:00 +18°C° 0.3 mm 4 mps 750 mmHg 64%
    11:00 +17°C° 0.3 mm 4 mps 750 mmHg 71%
    12:00 +17°C° 0.3 mm 4 mps 749 mmHg 78%
    13:00 +15°C° 1.2 mm 4 mps 749 mmHg 83%
    14:00 +14°C° 1.2 mm 5 mps 749 mmHg 89%
    15:00 +14°C° 1.2 mm 5 mps 749 mmHg 94%
    16:00 +14°C° 1.2 mm 5 mps 749 mmHg 95%
    17:00 +14°C° 1.2 mm 4 mps 749 mmHg 96%
    18:00 +14°C° 1.2 mm 4 mps 750 mmHg 97%
    19:00 +14°C° 0.5 mm 4 mps 750 mmHg 97%
    20:00 +14°C° 0.5 mm 4 mps 751 mmHg 98%
    21:00 +15°C° 0.5 mm 4 mps 751 mmHg 98%
    22:00 +16°C° 0.1 mm 3 mps 752 mmHg 98%
    23:00 +16°C° 0.1 mm 3 mps 752 mmHg 98%

    Day after tomorrow, 23 July, Tuesday

    Time Temperature Precipitation Wind Pressure Humidity
    00:00 +16°C° 0.1 mm 2 mps 752 mmHg 98%
    01:00 +16°C° 0 mm 2 mps 753 mmHg 98%
    02:00 +16°C° 0 mm 2 mps 753 mmHg 98%
    03:00 +16°C° 0 mm 2 mps 753 mmHg 98%
    04:00 +16°C° 0 mm 2 mps 753 mmHg 98%
    05:00 +16°C° 0 mm 3 mps 753 mmHg 97%
    06:00 +16°C° 0 mm 3 mps 754 mmHg 97%
    07:00 +17°C° 0.2 mm 3 mps 754 mmHg 97%
    08:00 +17°C° 0.2 mm 4 mps 754 mmHg 97%
    09:00 +17°C° 0.2 mm 4 mps 754 mmHg 97%
    10:00 +17°C° 0.5 mm 4 mps 754 mmHg 97%
    11:00 +17°C° 0.5 mm 4 mps 755 mmHg 97%
    12:00 +17°C° 0.5 mm 4 mps 755 mmHg 97%
    13:00 +17°C° 0.1 mm 4 mps 755 mmHg 97%
    14:00 +17°C° 0.1 mm 4 mps 755 mmHg 96%
    15:00 +18°C° 0.1 mm 4 mps 755 mmHg 96%
    16:00 +18°C° 0 mm 3 mps 755 mmHg 95%
    17:00 +18°C° 0 mm 3 mps 755 mmHg 94%
    18:00 +18°C° 0 mm 2 mps 755 mmHg 94%
    19:00 +18°C° 0 mm 2 mps 756 mmHg 95%
    20:00 +17°C° 0 mm 2 mps 756 mmHg 96%
    21:00 +17°C° 0 mm 2 mps 756 mmHg 97%
    22:00 +17°C° 0 mm 2 mps 756 mmHg 97%
    23:00 +16°C° 0 mm 2 mps 756 mmHg 97%

    24 July, Wednesday

    Time Temperature Precipitation Wind Pressure Humidity
    00:00 +16°C° 0 mm 1 mps 756 mmHg 97%
    01:00 +16°C° 0 mm 2 mps 756 mmHg 97%
    02:00 +16°C° 0 mm 2 mps 756 mmHg 97%
    03:00 +16°C° 0 mm 2 mps 756 mmHg 97%
    04:00 +17°C° 0 mm 2 mps 756 mmHg 95%
    05:00 +18°C° 0 mm 1 mps 756 mmHg 94%
    06:00 +19°C° 0 mm 1 mps 756 mmHg 93%
    07:00 +20°C° 0 mm 1 mps 756 mmHg 87%
    08:00 +22°C° 0 mm 1 mps 756 mmHg 81%
    09:00 +23°C° 0 mm 1 mps 756 mmHg 76%
    10:00 +24°C° 0 mm 2 mps 756 mmHg 71%
    11:00 +24°C° 0 mm 2 mps 756 mmHg 67%
    12:00 +25°C° 0 mm 2 mps 756 mmHg 62%
    13:00 +25°C° 0 mm 2 mps 755 mmHg 61%
    14:00 +25°C° 0 mm 2 mps 755 mmHg 61%
    15:00 +25°C° 0 mm 2 mps 755 mmHg 60%
    16:00 +24°C° 0 mm 2 mps 755 mmHg 65%
    17:00 +24°C° 0 mm 2 mps 755 mmHg 69%
    18:00 +23°C° 0 mm 2 mps 755 mmHg 74%
    19:00 +21°C° 0 mm 2 mps 755 mmHg 78%
    20:00 +20°C° 0 mm 2 mps 755 mmHg 82%
    21:00 +19°C° 0 mm 2 mps 755 mmHg 85%
    22:00 +19°C° 0 mm 2 mps 755 mmHg 82%
    23:00 +19°C° 0 mm 2 mps 755 mmHg 78%

    25 July, Thursday

    Time Temperature Precipitation Wind Pressure Humidity
    00:00 +19°C° 0 mm 2 mps 755 mmHg 75%
    01:00 +19°C° 0 mm 2 mps 754 mmHg 72%
    02:00 +20°C° 0 mm 3 mps 754 mmHg 69%
    03:00 +20°C° 0 mm 3 mps 754 mmHg 66%
    04:00 +21°C° 0 mm 3 mps 754 mmHg 66%
    05:00 +21°C° 0 mm 3 mps 755 mmHg 66%
    06:00 +22°C° 0 mm 3 mps 755 mmHg 66%
    07:00 +24°C° 0 mm 3 mps 755 mmHg 63%
    08:00 +25°C° 0 mm 3 mps 755 mmHg 60%
    09:00 +26°C° 0 mm 3 mps 755 mmHg 57%
    10:00 +27°C° 0 mm 3 mps 755 mmHg 56%
    11:00 +28°C° 0 mm 3 mps 755 mmHg 54%
    12:00 +29°C° 0 mm 3 mps 755 mmHg 53%
    13:00 +29°C° 0 mm 3 mps 754 mmHg 53%
    14:00 +29°C° 0 mm 3 mps 754 mmHg 54%
    15:00 +30°C° 0 mm 3 mps 754 mmHg 54%
    16:00 +28°C° 0.5 mm 3 mps 754 mmHg 60%
    17:00 +27°C° 0.5 mm 3 mps 754 mmHg 66%
    18:00 +26°C° 0.5 mm 3 mps 754 mmHg 72%
    19:00 +25°C° 0.3 mm 3 mps 754 mmHg 72%
    20:00 +25°C° 0.3 mm 3 mps 754 mmHg 72%
    21:00 +24°C° 0.3 mm 3 mps 755 mmHg 73%
    22:00 +24°C° 0 mm 3 mps 755 mmHg 73%
    23:00 +24°C° 0 mm 3 mps 755 mmHg 74%

    26 July, Friday

    Time Temperature Precipitation Wind Pressure Humidity
    00:00 +22°C° 0 mm 3 mps 755 mmHg 75%
    01:00 +22°C° 0 mm 3 mps 755 mmHg 75%
    02:00 +22°C° 0 mm 3 mps 754 mmHg 76%
    03:00 +21°C° 0 mm 3 mps 754 mmHg 77%
    04:00 +22°C° 0 mm 3 mps 754 mmHg 75%
    05:00 +24°C° 0 mm 3 mps 754 mmHg 72%
    06:00 +25°C° 0 mm 3 mps 754 mmHg 70%
    07:00 +27°C° 0 mm 4 mps 754 mmHg 62%
    08:00 +28°C° 0 mm 5 mps 754 mmHg 55%
    09:00 +29°C° 0 mm 5 mps 754 mmHg 47%
    10:00 +29°C° 0 mm 5 mps 754 mmHg 46%
    11:00 +29°C° 0 mm 5 mps 754 mmHg 45%
    12:00 +29°C° 0 mm 5 mps 753 mmHg 44%
    13:00 +27°C° 0 mm 5 mps 753 mmHg 51%
    14:00 +26°C° 0 mm 4 mps 753 mmHg 57%
    15:00 +25°C° 0 mm 4 mps 753 mmHg 64%
    16:00 +22°C° 0 mm 3 mps 754 mmHg 70%
    17:00 +21°C° 0 mm 2 mps 754 mmHg 76%
    18:00 +21°C° 0 mm 1 mps 754 mmHg 82%
    19:00 +19°C° 0 mm 2 mps 754 mmHg 86%
    20:00 +18°C° 0 mm 2 mps 754 mmHg 91%
    21:00 +17°C° 0 mm 3 mps 754 mmHg 96%
    22:00 +17°C° 0.4 mm 3 mps 754 mmHg 95%
    23:00 +17°C° 0.4 mm 3 mps 753 mmHg 94%
    Show more